Location: Diebersbach
(48.5163°N, 8.0558°E)
Time: 04:44:42
(UTC+00:00)

USA 229 - Pass Details

Date: 01 November 2021
Orbit: 946 x 1266 km, 63.4° (Epoch: 25 November)

Event Time Altitude Azimuth Distance (km) Brightness Sun altitude
Rises 20:44:06 0° 300° (WNW) 3,807 7.4 -44.7°
Reaches altitude 10° 20:47:15 10° 314° (NW) 2,906 6.5 -45.1°
Enters shadow 20:50:28 21° 340° (NNW) 2,254 5.7 -45.5°
